Wind_Speed
32 31 31 32 33 34 34 34 34 33 33 32 33 32 31 31 30 30 30 31 31 32 32 34 35 35 35 35 36 37 36 35 35 34 34 33 33 34
31 30 30 31 32 33 34 34 34 34 34 34 33 32 31 31 30 30 30 30 31 31 32 33 34 35 36 36 36 36 36 36 36 36 36 35 34 34
30 29 29 29 30 32 32 33 33 34 34 34 33 31 31 31 30 30 30 30 31 31 31 31 32 33 34 34 36 36 37 38 38 37 37 37 37 37
30 29 28 28 29 30 31 32 33 33 33 33 32 32 31 31 31 30 29 28 29 29 30 30 31 32 33 34 34 35 36 37 38 39 39 39 39 39
30 29 28 28 28 29 29 30 31 31 31 32 32 32 32 31 30 29 28 28 28 29 29 30 30 30 31 31 32 33 36 36 37 38 39 40 40 40
30 29 28 27 26 27 27 27 29 30 30 30 31 31 30 30 29 29 28 28 28 28 28 28 28 28 28 29 30 32 33 35 36 37 38 39 40 41
31 29 27 25 25 25 25 26 27 28 29 30 29 29 30 30 29 30 29 27 26 26 25 25 25 25 25 26 27 28 30 32 34 36 37 39 40 42
30 29 27 25 24 24 24 25 26 27 27 28 29 28 29 29 28 27 27 26 24 23 22 22 22 22 23 24 25 27 28 30 31 33 35 37 39 41
28 27 25 24 24 24 23 23 24 25 27 26 26 27 26 26 25 24 23 22 20 20 19 18 18 18 19 21 22 23 24 26 29 31 33 35 38 40
27 26 25 25 23 22 21 22 22 22 22 22 23 24 24 23 21 21 20 18 17 17 16 15 15 15 16 17 19 21 23 25 27 30 33 36 38 40
27 25 24 23 22 22 21 22 22 21 20 20 21 21 21 20 18 17 16 15 15 14 12 12 12 12 13 15 18 20 23 25 28 31 34 37 39 42
26 24 23 22 22 21 21 21 21 20 20 20 19 18 17 17 16 15 14 13 11 10 9 9 9 10 11 14 16 18 21 24 27 29 32 35 38 41
26 24 23 22 22 21 20 20 20 19 18 18 17 16 16 15 14 13 11 10 9 8 7 7 7 9 11 13 16 18 21 23 25 27 30 32 35 37
26 24 22 21 21 20 19 18 18 18 18 17 16 15 15 14 13 12 11 10 9 7 6 6 7 8 10 13 15 17 20 22 25 27 29 30 31 33
26 24 23 22 21 20 19 19 18 18 17 16 16 15 15 14 13 12 11 10 8 6 5 5 6 8 10 12 15 17 20 22 24 26 27 28 29 30
27 25 24 23 23 22 21 20 19 18 17 17 16 15 14 14 13 12 11 9 7 6 5 5 6 8 10 13 15 18 20 22 24 25 26 27 28 29
27 26 24 23 23 22 21 20 19 19 17 17 16 15 15 14 13 12 10 9 7 6 6 6 7 9 11 13 15 18 20 22 24 25 26 27 28 28
29 27 26 25 24 23 22 21 19 19 18 17 16 16 15 14 13 12 10 9 8 7 7 7 8 10 12 14 16 18 20 22 24 25 27 28 28 28
30 29 27 25 24 23 22 21 20 19 19 18 17 16 15 14 13 12 11 10 9 9 9 10 11 12 14 16 18 20 22 24 25 27 28 29 30 30
31 30 28 26 24 23 22 21 20 20 19 18 18 17 16 15 14 13 13 12 11 11 12 12 13 15 16 18 20 21 23 24 26 28 29 30 31 31
31 30 28 26 24 23 21 21 20 20 19 19 18 18 18 17 16 15 14 14 14 14 15 15 16 18 19 20 21 23 25 26 27 29 31 32 33 33
31 29 27 25 23 22 21 20 20 20 19 19 19 19 18 18 17 16 16 16 16 16 17 18 19 20 21 22 23 25 26 27 28 29 31 33 34 34
30 28 26 24 23 21 21 20 20 19 19 19 19 19 19 18 18 18 18 18 18 19 20 21 22 22 23 24 25 27 28 29 30 31 33 34 35 35
Wind_Direction
292 284 277 270 265 263 261 259 259 259 259 258 257 257 255 253 253 252 250 249 248 249 247 246 244 243 243 243 242 241 242 242 242 243 245 247 246 243
293 286 278 272 265 262 260 259 258 257 257 256 256 254 253 251 251 249 249 248 247 248 247 246 246 246 244 243 241 240 239 239 241 242 242 243 244 243
292 287 280 273 267 262 259 257 257 255 255 254 253 252 250 249 250 249 249 248 247 246 247 247 247 246 245 244 243 243 241 240 240 241 241 241 242 242
290 286 280 273 267 262 259 257 255 254 252 251 250 249 248 247 247 248 246 246 245 246 245 246 247 247 247 247 246 246 245 244 243 244 245 245 246 246
286 284 280 272 266 261 258 255 251 249 249 250 247 246 245 245 244 241 243 245 245 246 245 246 247 248 249 250 249 249 248 248 248 249 250 253 252 251
283 280 277 271 265 259 255 252 247 246 247 245 244 242 241 243 243 242 244 245 245 245 245 246 248 249 251 252 252 252 252 252 252 253 254 255 256 256
279 276 273 269 261 256 252 248 244 243 242 240 241 240 237 238 240 241 242 242 240 241 243 245 246 248 250 251 252 253 254 255 256 257 258 258 259 260
274 271 267 263 256 252 249 244 241 240 240 238 238 237 233 235 238 239 238 237 237 239 242 246 249 251 252 253 255 257 258 260 261 262 263 263 262 262
267 264 261 256 252 247 244 241 240 240 239 239 236 236 234 233 233 234 234 233 235 240 244 246 248 251 254 257 261 264 266 267 268 269 269 269 268 267
260 257 255 252 247 242 241 238 238 238 234 233 231 230 229 227 228 228 229 231 234 234 237 244 250 256 261 265 268 270 272 273 274 274 273 272 271 271
252 250 248 245 240 237 234 236 236 234 232 231 229 223 219 219 219 220 221 224 226 230 234 241 249 257 264 270 274 277 279 279 280 279 277 276 274 273
242 239 239 237 234 231 230 230 229 228 226 221 215 212 211 209 210 211 211 213 215 220 228 239 251 263 275 283 288 288 288 288 288 287 286 283 280 278
232 231 230 228 225 225 221 219 218 216 213 208 207 206 202 200 198 195 195 198 203 211 223 239 259 276 287 295 299 300 300 299 299 298 297 294 290 285
223 222 220 218 214 210 207 205 203 202 200 196 193 190 187 186 185 185 187 190 196 208 227 250 275 291 301 309 313 314 313 312 311 310 307 303 298 293
214 214 212 207 204 202 200 197 193 190 187 185 182 180 179 180 182 184 185 188 196 211 236 264 287 302 312 320 325 326 325 324 322 319 315 311 307 303
206 206 204 203 200 198 194 189 187 185 183 182 180 178 179 181 183 184 187 192 203 219 241 272 293 308 318 325 329 331 332 332 330 328 324 320 316 312
198 197 195 194 192 189 187 186 185 185 184 183 181 182 183 184 186 189 195 204 216 231 251 277 300 313 320 325 329 332 334 334 334 332 331 328 325 320
191 189 188 188 187 187 187 187 186 186 185 185 185 187 188 189 193 198 206 216 228 243 262 280 299 310 319 324 327 330 333 335 334 334 334 333 330 326
188 187 186 186 186 186 186 186 186 187 189 190 191 193 195 198 204 210 219 228 241 255 270 283 294 305 314 321 325 327 330 332 333 333 333 333 332 330
185 185 185 185 186 186 187 189 190 191 193 195 198 200 203 208 214 222 230 241 252 264 275 285 293 302 310 316 321 324 326 327 329 331 332 332 332 331
185 184 184 186 187 188 190 192 194 196 198 201 205 208 212 218 224 232 242 252 261 270 279 286 292 299 306 311 316 320 323 325 327 329 330 330 330 330
183 184 185 187 188 190 192 195 198 200 204 208 212 216 222 228 234 242 251 260 268 275 281 287 293 298 303 307 311 316 320 322 324 326 328 329 329 328
182 183 184 187 190 193 196 200 203 206 211 215 220 226 231 237 243 250 258 266 273 278 283 288 293 297 302 305 309 313 316 320 322 323 326 327 327 326
Height
5739 5737 5736 5737 5737 5739 5740 5742 5743 5745 5746 5748 5749 5750 5752 5753 5755 5757 5759 5761 5763 5766 5768 5770 5773 5776 5778 5781 5783 5786 5789 5791 5794 5796 5798 5800 5802 5804
5731 5729 5728 5728 5728 5729 5730 5732 5734 5735 5737 5739 5740 5741 5744 5746 5748 5749 5751 5753 5756 5758 5760 5762 5765 5767 5770 5773 5775 5777 5780 5783 5785 5788 5790 5792 5794 5796
5723 5721 5720 5719 5719 5720 5721 5723 5724 5726 5728 5729 5731 5733 5736 5738 5740 5742 5744 5746 5748 5750 5753 5755 5757 5759 5761 5764 5767 5769 5771 5774 5776 5778 5780 5782 5784 5787
5715 5713 5712 5711 5711 5711 5713 5714 5716 5717 5719 5721 5723 5725 5728 5731 5732 5735 5737 5739 5741 5743 5745 5748 5750 5751 5754 5756 5758 5761 5763 5765 5767 5769 5771 5773 5775 5777
5707 5705 5704 5703 5703 5703 5704 5705 5707 5709 5711 5713 5715 5717 5720 5723 5725 5727 5730 5732 5734 5737 5739 5741 5742 5744 5746 5748 5750 5752 5755 5757 5759 5760 5762 5763 5765 5767
5698 5697 5696 5695 5695 5695 5696 5697 5699 5701 5703 5705 5707 5710 5713 5715 5718 5721 5723 5725 5728 5730 5732 5734 5735 5737 5739 5741 5743 5745 5747 5748 5750 5752 5753 5755 5756 5757
5689 5688 5688 5687 5687 5688 5689 5690 5692 5694 5696 5698 5700 5703 5706 5709 5712 5714 5716 5719 5721 5723 5725 5727 5729 5731 5733 5735 5736 5738 5739 5741 5742 5743 5744 5745 5746 5748
5680 5680 5680 5680 5680 5681 5682 5683 5685 5687 5689 5691 5694 5696 5699 5702 5705 5708 5710 5713 5716 5718 5720 5722 5724 5725 5727 5728 5729 5731 5732 5733 5734 5735 5735 5736 5736 5737
5671 5671 5672 5672 5673 5674 5675 5677 5679 5681 5683 5686 5688 5690 5693 5696 5699 5702 5705 5707 5710 5713 5715 5717 5718 5719 5721 5722 5723 5724 5724 5725 5726 5726 5726 5726 5726 5726
5663 5663 5664 5665 5666 5667 5669 5671 5673 5675 5678 5680 5682 5685 5688 5691 5694 5697 5700 5703 5706 5708 5710 5712 5713 5715 5716 5716 5717 5717 5718 5718 5718 5717 5717 5716 5715 5715
5654 5656 5657 5658 5660 5662 5664 5666 5668 5670 5673 5675 5678 5681 5684 5687 5690 5693 5696 5699 5702 5704 5706 5708 5709 5710 5711 5711 5711 5711 5711 5710 5709 5708 5707 5705 5703 5702
5646 5648 5650 5652 5654 5656 5658 5661 5663 5666 5669 5671 5674 5677 5680 5684 5687 5690 5693 5696 5698 5700 5702 5704 5705 5706 5706 5706 5706 5705 5704 5702 5700 5698 5696 5693 5691 5688
5638 5641 5643 5646 5649 5651 5654 5656 5659 5662 5665 5668 5671 5674 5678 5681 5684 5687 5690 5693 5696 5698 5699 5701 5701 5702 5702 5701 5700 5699 5697 5694 5691 5688 5685 5682 5678 5675
5631 5635 5638 5641 5644 5647 5650 5653 5656 5659 5663 5666 5669 5672 5676 5679 5682 5685 5688 5691 5693 5695 5696 5697 5697 5698 5697 5696 5695 5692 5689 5686 5683 5679 5675 5671 5668 5664
5625 5629 5633 5637 5640 5644 5647 5650 5654 5658 5661 5665 5668 5671 5675 5678 5681 5684 5686 5689 5690 5692 5693 5693 5694 5693 5692 5691 5689 5686 5683 5680 5676 5672 5667 5663 5659 5655
5619 5624 5628 5632 5637 5641 5644 5648 5652 5656 5660 5663 5667 5670 5673 5676 5679 5682 5684 5686 5688 5689 5690 5690 5690 5689 5688 5686 5684 5681 5678 5674 5670 5665 5661 5656 5651 5646
5614 5619 5624 5629 5634 5638 5642 5647 5651 5655 5658 5662 5665 5669 5672 5675 5678 5680 5682 5684 5685 5686 5687 5687 5686 5685 5684 5682 5680 5677 5673 5669 5665 5660 5655 5650 5644 5639
5610 5616 5622 5627 5632 5636 5641 5645 5649 5653 5657 5660 5664 5667 5670 5673 5676 5678 5680 5682 5683 5683 5684 5683 5683 5682 5680 5678 5676 5672 5668 5664 5660 5655 5650 5644 5638 5633
5607 5613 5619 5625 5630 5635 5639 5643 5648 5652 5655 5659 5662 5666 5669 5671 5674 5676 5677 5679 5679 5680 5680 5679 5678 5677 5676 5674 5671 5667 5663 5659 5655 5650 5644 5639 5633 5627
5604 5611 5617 5623 5628 5633 5637 5642 5646 5650 5654 5657 5661 5664 5666 5669 5671 5673 5674 5675 5676 5676 5675 5675 5674 5672 5670 5668 5665 5662 5658 5654 5649 5644 5639 5633 5627 5621
5603 5609 5615 5621 5626 5631 5636 5640 5644 5648 5652 5656 5659 5661 5664 5666 5668 5670 5671 5671 5671 5671 5670 5670 5668 5667 5664 5662 5659 5656 5652 5648 5643 5638 5633 5627 5621 5615
5601 5607 5614 5619 5624 5629 5634 5638 5642 5646 5650 5653 5656 5659 5661 5663 5664 5666 5666 5666 5666 5666 5665 5664 5662 5661 5659 5656 5653 5649 5646 5642 5637 5632 5627 5621 5615 5608
5600 5606 5612 5618 5623 5628 5632 5636 5640 5644 5647 5650 5653 5655 5657 5659 5660 5661 5661 5661 5661 5660 5659 5658 5656 5654 5652 5649 5646 5643 5639 5634 5630 5625 5621 5615 5609 5602